EW1390 Weather Reports


Display with metric or nautical units.
time (UTC)temp
F
wind
direction
speed
MPH
gust
MPH
rain 1hr
in
rain 24hr
in
rain mn
in
humidity
%
barometer
mb
20260903233042 77 196 0.0 4.0 0.00 0.00 0.00 38 1004.6
20260903231541 78 327 0.0 4.0 0.00 0.00 0.00 39 1004.8
20260903230038 77 265 0.0 9.0 0.00 0.00 0.00 41 1005.0
20260903224545 78 246 0.0 3.0 0.00 0.00 0.00 41 1005.2
20260903223036 77 113 1.0 5.0 0.00 0.00 0.00 42 1005.4
20260903221533 77 121 1.0 6.0 0.00 0.00 0.00 42 1005.7
20260903220033 78 213 1.0 8.0 0.00 0.00 0.00 43 1005.8
20260903214535 77 320 2.0 10.0 0.00 0.00 0.00 43 1005.7
20260903213036 77 80 2.0 7.0 0.00 0.00 0.00 44 1005.8
20260903211536 77 230 1.0 9.0 0.00 0.00 0.00 44 1005.9
20260903210028 77 112 0.0 8.0 0.00 0.00 0.00 44 1005.9
20260903204525 77 190 1.0 8.0 0.00 0.00 0.00 45 1006.0
20260903203026 76 133 0.0 8.0 0.00 0.00 0.00 46 1005.9
20260903201521 76 222 2.0 6.0 0.00 0.00 0.00 45 1006.0
20260903200024 75 140 1.0 7.0 0.00 0.00 0.00 46 1006.3
20260903194523 76 221 1.0 5.0 0.00 0.00 0.00 43 1006.4
20260903193016 75 323 0.0 8.0 0.00 0.00 0.00 45 1006.5
20260903191528 75 215 1.0 7.0 0.00 0.00 0.00 44 1006.8
20260903190011 76 213 0.0 5.0 0.00 0.00 0.00 45 1007.0
20260903184511 74 249 2.0 7.0 0.00 0.00 0.00 46 1007.1
20260903183006 74 208 0.0 10.0 0.00 0.00 0.00 47 1007.3
20260903181603 73 110 0.0 8.0 0.00 0.00 0.00 48 1007.3
20260903180100 73 231 1.0 7.0 0.00 0.00 0.00 49 1007.2
20260903180001 73 129 1.0 7.0 0.00 0.00 0.00 50 1007.2
20260903174557 72 138 1.0 6.0 0.00 0.00 0.00 52 1007.1
20260903173054 70 232 1.0 4.0 0.00 0.00 0.00 53 1007.3
20260903171552 68 235 0.0 3.0 0.00 0.00 0.00 58 1007.5
20260903170145 66 238 0.0 5.0 0.00 0.00 0.00 62 1007.6
20260903164541 61 219 0.0 2.0 0.00 0.00 0.00 73 1007.8
20260903163047 58 219 0.0 1.0 0.00 0.00 0.00 83 1007.7
20260903161532 55 219 0.0 0.0 0.00 0.00 0.00 87 1007.8
20260903160032 54 219 0.0 0.0 0.00 0.00 0.00 89 1008.0
20260903154531 52 219 0.0 0.0 0.00 0.00 0.00 89 1008.1
20260903153029 51 219 0.0 0.0 0.00 0.00 0.00 89 1008.2
20260903151530 50 219 0.0 0.0 0.00 0.00 0.00 88 1008.2
20260903150037 49 219 0.0 0.0 0.00 0.00 0.00 88 1008.1
20260903144528 49 219 0.0 0.0 0.00 0.00 0.00 88 1008.1
20260903143035 48 219 0.0 0.0 0.00 0.00 0.00 87 1008.0
20260903141526 48 219 0.0 0.0 0.00 0.00 0.00 87 1007.9
20260903140026 48 219 0.0 0.0 0.00 0.00 0.00 87 1007.8
20260903134524 48 219 0.0 0.0 0.00 0.00 0.00 87 1007.8
20260903133027 48 219 0.0 0.0 0.00 0.00 0.00 86 1007.8
20260903131523 48 219 0.0 0.0 0.00 0.00 0.00 86 1007.8
20260903130022 48 219 0.0 0.0 0.00 0.00 0.00 86 1007.8
20260903124524 48 219 0.0 0.0 0.00 0.00 0.00 86 1007.8
20260903123027 49 219 0.0 0.0 0.00 0.00 0.00 85 1007.9
20260903121518 49 219 0.0 0.0 0.00 0.00 0.00 85 1007.8
20260903120016 49 219 0.0 0.0 0.00 0.00 0.00 85 1008.0
20260903114514 49 219 0.0 0.0 0.00 0.00 0.00 84 1008.0
20260903113014 49 219 0.0 0.0 0.00 0.00 0.00 84 1008.1
20260903111511 50 219 0.0 0.0 0.00 0.00 0.00 84 1008.2
20260903110009 50 219 0.0 0.0 0.00 0.00 0.00 83 1008.3
20260903104508 50 219 0.0 0.0 0.00 0.00 0.00 83 1008.3
20260903103006 50 219 0.0 0.0 0.00 0.00 0.00 82 1008.3
20260903101504 51 219 0.0 0.0 0.00 0.00 0.00 82 1008.4
20260903100004 51 219 0.0 0.0 0.00 0.00 0.00 82 1008.5
20260903094603 51 219 0.0 0.0 0.00 0.00 0.00 81 1008.5
20260903093126 51 219 0.0 0.0 0.00 0.00 0.00 81 1008.6
20260903091557 51 219 0.0 0.0 0.00 0.00 0.00 80 1008.6
20260903090054 52 219 0.0 0.0 0.00 0.00 0.00 80 1008.7
20260903084552 52 219 0.0 0.0 0.00 0.00 0.00 79 1008.7
20260903083056 53 219 0.0 0.0 0.00 0.00 0.00 79 1008.8
20260903081552 53 219 0.0 0.0 0.00 0.00 0.00 78 1008.9
20260903080046 54 219 0.0 0.0 0.00 0.00 0.00 78 1008.9
20260903074546 54 219 0.0 0.0 0.00 0.00 0.00 77 1008.8
20260903073043 54 219 0.0 0.0 0.00 0.00 0.00 77 1008.7
20260903071554 55 219 0.0 0.0 0.00 0.00 0.00 76 1008.6
20260903070056 55 219 0.0 0.0 0.00 0.00 0.00 75 1008.7
20260903064537 56 219 0.0 0.0 0.00 0.00 0.00 74 1008.7
20260903063040 56 219 0.0 0.0 0.00 0.00 0.00 73 1008.7
20260903061537 57 219 0.0 0.0 0.00 0.00 0.00 73 1008.8
20260903060039 57 219 0.0 0.0 0.00 0.00 0.00 72 1008.7
20260903054543 58 219 0.0 1.0 0.00 0.00 0.00 71 1008.7
20260903053037 58 219 0.0 0.0 0.00 0.00 0.00 70 1008.9
20260903051534 59 219 0.0 2.0 0.00 0.00 0.00 70 1008.8
20260903050040 59 219 0.0 2.0 0.00 0.00 0.00 69 1008.9
20260903044534 60 219 0.0 2.0 0.00 0.00 0.00 68 1008.9
20260903043033 60 219 0.0 1.0 0.00 0.00 0.00 66 1008.8
20260903041534 61 219 0.0 1.0 0.00 0.00 0.00 65 1008.7
20260903040036 62 219 0.0 1.0 0.00 0.00 0.00 64 1008.7
20260903034532 63 219 0.0 1.0 0.00 0.00 0.00 61 1008.6
20260903033032 64 219 0.0 1.0 0.00 0.00 0.00 60 1008.4
20260903031534 65 219 0.0 1.0 0.00 0.00 0.00 58 1008.3
20260903030031 66 219 0.0 1.0 0.00 0.00 0.00 55 1008.2
20260903024530 68 219 0.0 1.0 0.00 0.00 0.00 53 1008.1
20260903023037 70 219 0.0 1.0 0.00 0.00 0.00 50 1008.1
20260903021528 71 219 0.0 3.0 0.00 0.00 0.00 48 1008.3
20260903020026 72 219 0.0 3.0 0.00 0.00 0.00 45 1008.3
20260903014525 73 234 0.0 4.0 0.00 0.00 0.00 41 1008.3
20260903013023 74 167 1.0 4.0 0.00 0.00 0.00 40 1008.3
20260903011524 74 246 0.0 3.0 0.00 0.00 0.00 39 1008.2
20260903010021 75 84 1.0 5.0 0.00 0.00 0.00 38 1008.4
20260903004525 77 238 1.0 6.0 0.00 0.00 0.00 35 1008.5
20260903003020 77 241 1.0 5.0 0.00 0.00 0.00 35 1008.5
20260903001522 77 261 0.0 5.0 0.00 0.00 0.00 34 1008.6
20260903000035 78 248 2.0 7.0 0.00 0.00 0.00 33 1008.6
20260902234515 78 82 1.0 8.0 0.00 0.00 0.00 34 1008.7